Flag for Colombia Weather past 2 weeks in Bucaramanga, Colombia

Now
57 °F

Fog.


Feels Like: 57 °F
Forecast: 65 / 84 °F
Wind: 5 mph from Northeast

Location: Rionegro / J. M. Cordova

Current Time: Mar 5, 2015 at 3:52:09 AM

Latest Report: Mar 5, 2015 at 3:00 AM


Visibility: 3 mi

Pressure: 30.19 "Hg

Humidity: 94%

Dew point: 55 °F

Location of BucaramangaLocation

Historic Weather in Bucaramanga — Graph

°F

Bucaramanga temperature yesterday

Maximum temperature yesterday: 72 °F (at 2:00 PM)
Minimum temperature yesterday: 48 °F (at 6:00 PM)
Average temperature yesterday: 63 °F

Past Weeks' High & Low Weather Summary

 TemperatureHumidityPressure
High88 °F (Feb 28, 12:00 PM)100% (Feb 18, 3:00 AM)30.36 "Hg (Feb 18, 3:00 AM)
Low34 °F (Feb 26, 11:00 PM)33% (Feb 28, 12:00 PM)30.15 "Hg (Feb 26, 8:00 AM)
Average62 °F81%30.26 "Hg
* Reported Feb 18 3:00 AM — Mar 5 3:00 AM, Bucaramanga, Weather by CustomWeather, © 2015

Note: Actual official high and low records may vary slightly from our data, if they occured in-between our weather recording intervals... More about our weather records

Advertising

Bucaramanga weather history for previous 24 hours

 ConditionsComfort  
Time TempWeatherWind HumidityBarometerVisibility
3:00 AM
Thu, Mar 5
57 °FFog.5 mph94%30.19 "Hg3 mi
1:00 AM59 °FFog.No wind94%30.23 "Hg5 mi
12:00 AM59 °FFog.No wind94%30.24 "Hg3 mi
11:00 PM
Wed, Mar 4
61 °FFog.No wind88%30.26 "Hg3 mi
10:00 PM61 °FPartly cloudy.No wind88%30.25 "Hg4 mi
9:00 PM63 °FPassing clouds.No wind88%30.24 "HgN/A
8:00 PM63 °FPassing clouds.No wind88%30.22 "HgN/A
7:00 PM64 °FPassing clouds.7 mph83%30.20 "HgN/A
6:00 PM48 °FScattered clouds.10 mph100%30.17 "HgN/A
5:00 PM70 °FPassing clouds.10 mph60%30.15 "HgN/A
4:00 PM72 °FPassing clouds.5 mph53%30.15 "HgN/A
3:00 PM72 °FScattered clouds.12 mph50%30.17 "HgN/A
2:00 PM72 °FScattered clouds.14 mph53%30.19 "HgN/A
1:00 PM70 °FScattered clouds.5 mph57%30.22 "HgN/A
12:00 PM68 °FScattered clouds.7 mph64%30.25 "HgN/A
11:00 AM66 °FScattered clouds.7 mph68%30.27 "HgN/A
10:00 AM63 °FBroken clouds.No wind77%30.28 "Hg6 mi
9:00 AM61 °FBroken clouds.No wind83%30.27 "Hg5 mi
8:00 AM59 °FDrizzle. Partly sunny.No wind88%30.26 "Hg3 mi
7:00 AM59 °FFog.No wind88%30.22 "Hg2 mi
6:00 AM57 °FFog.No wind94%30.21 "Hg2 mi
5:00 AM59 °FFog.No wind94%30.20 "Hg2 mi
4:00 AM59 °FFog.No wind94%30.19 "Hg2 mi
3:00 AM59 °FFog.No wind94%30.19 "Hg2 mi
Weather by CustomWeather, © 2015

See weather overviewHow to use our weather pages